When you browse on this site, cookies collect data to enhance your experience and personalize the content and advertising you see.
Visit our Privacy Policy to learn more. By continuing to use the site, you agree to this use of cookies and data.

Meteo pe oră la Oita

Astăzi, 14 Iulie, Marţi

Timp Temperatura Precipitaţii Vânt Presiune Umiditate
00:00 +26°C° 0.1 mm 3 m/s 747 mmHg 92%
01:00 +26°C° 0 mm 2 m/s 747 mmHg 93%
02:00 +26°C° 0 mm 2 m/s 746 mmHg 93%
03:00 +26°C° 0 mm 2 m/s 746 mmHg 93%
04:00 +26°C° 6 mm 1 m/s 746 mmHg 95%
05:00 +26°C° 6 mm 1 m/s 746 mmHg 96%
06:00 +25°C° 6 mm 1 m/s 746 mmHg 98%
07:00 +25°C° 6.1 mm 1 m/s 746 mmHg 98%
08:00 +25°C° 6.1 mm 1 m/s 746 mmHg 97%
09:00 +25°C° 0 mm 1 m/s 746 mmHg 95%
10:00 +25°C° 0.6 mm 1 m/s 746 mmHg 94%
11:00 +25°C° 0.6 mm 1 m/s 746 mmHg 94%
12:00 +26°C° 0.6 mm 1 m/s 746 mmHg 93%
13:00 +27°C° 0.3 mm 1 m/s 746 mmHg 85%
14:00 +28°C° 0.3 mm 2 m/s 746 mmHg 78%
15:00 +29°C° 0 mm 2 m/s 746 mmHg 73%
16:00 +28°C° 0.1 mm 2 m/s 746 mmHg 76%
17:00 +27°C° 0.1 mm 2 m/s 746 mmHg 80%
18:00 +26°C° 0.1 mm 2 m/s 746 mmHg 84%
19:00 +25°C° 0.1 mm 2 m/s 746 mmHg 85%
20:00 +24°C° 0.1 mm 2 m/s 747 mmHg 86%
21:00 +24°C° 0.1 mm 2 m/s 747 mmHg 87%
22:00 +23°C° 0 mm 2 m/s 747 mmHg 87%
23:00 +23°C° 0 mm 2 m/s 747 mmHg 87%

Mâine, 15 Iulie, Miercuri

Timp Temperatura Precipitaţii Vânt Presiune Umiditate
00:00 +23°C° 0 mm 1 m/s 747 mmHg 87%
01:00 +23°C° 0 mm 1 m/s 747 mmHg 88%
02:00 +23°C° 0 mm 1 m/s 747 mmHg 88%
03:00 +23°C° 0 mm 1 m/s 746 mmHg 88%
04:00 +23°C° 0 mm 1 m/s 747 mmHg 88%
05:00 +23°C° 0 mm 1 m/s 747 mmHg 88%
06:00 +23°C° 0 mm 1 m/s 747 mmHg 88%
07:00 +23°C° 0 mm 1 m/s 747 mmHg 86%
08:00 +24°C° 0 mm 1 m/s 747 mmHg 84%
09:00 +25°C° 0 mm 1 m/s 748 mmHg 82%
10:00 +26°C° 0.2 mm 1 m/s 748 mmHg 78%
11:00 +27°C° 0.2 mm 1 m/s 747 mmHg 75%
12:00 +28°C° 0.2 mm 1 m/s 747 mmHg 72%
13:00 +27°C° 0.3 mm 1 m/s 747 mmHg 74%
14:00 +27°C° 0.3 mm 1 m/s 747 mmHg 77%
15:00 +26°C° 0.3 mm 1 m/s 747 mmHg 79%
16:00 +26°C° 0.4 mm 1 m/s 747 mmHg 83%
17:00 +25°C° 0.4 mm 1 m/s 747 mmHg 87%
18:00 +24°C° 0.4 mm 1 m/s 747 mmHg 90%
19:00 +24°C° 0.4 mm 1 m/s 748 mmHg 91%
20:00 +23°C° 0.4 mm 1 m/s 748 mmHg 91%
21:00 +23°C° 0.4 mm 1 m/s 748 mmHg 92%
22:00 +22°C° 0 mm 1 m/s 748 mmHg 91%
23:00 +22°C° 0 mm 1 m/s 748 mmHg 91%

Poimâine, 16 Iulie, Joi

Timp Temperatura Precipitaţii Vânt Presiune Umiditate
00:00 +22°C° 0 mm 1 m/s 748 mmHg 91%
01:00 +22°C° 0 mm 1 m/s 748 mmHg 91%
02:00 +21°C° 0 mm 1 m/s 748 mmHg 91%
03:00 +21°C° 0 mm 1 m/s 748 mmHg 91%
04:00 +21°C° 0 mm 1 m/s 748 mmHg 92%
05:00 +21°C° 0 mm 1 m/s 748 mmHg 92%
06:00 +21°C° 0 mm 1 m/s 748 mmHg 92%
07:00 +23°C° 0 mm 1 m/s 748 mmHg 87%
08:00 +24°C° 0 mm 1 m/s 748 mmHg 83%
09:00 +26°C° 0 mm 1 m/s 748 mmHg 78%
10:00 +26°C° 0 mm 1 m/s 748 mmHg 74%
11:00 +27°C° 0 mm 2 m/s 748 mmHg 69%
12:00 +28°C° 0 mm 2 m/s 748 mmHg 65%
13:00 +28°C° 0.1 mm 2 m/s 748 mmHg 66%
14:00 +28°C° 0.1 mm 2 m/s 748 mmHg 68%
15:00 +28°C° 0.1 mm 2 m/s 747 mmHg 69%
16:00 +27°C° 0.1 mm 1 m/s 747 mmHg 72%
17:00 +27°C° 0.1 mm 1 m/s 747 mmHg 74%
18:00 +26°C° 0.1 mm 1 m/s 747 mmHg 77%
19:00 +25°C° 0 mm 1 m/s 747 mmHg 80%
20:00 +24°C° 0 mm 1 m/s 748 mmHg 83%
21:00 +21°C° 0 mm 0 m/s 748 mmHg 86%
22:00 +23°C° 0 mm 1 m/s 748 mmHg 86%
23:00 +22°C° 0 mm 1 m/s 748 mmHg 87%

17 Iulie, Vineri

Timp Temperatura Precipitaţii Vânt Presiune Umiditate
00:00 +22°C° 0 mm 1 m/s 748 mmHg 87%
01:00 +22°C° 0 mm 1 m/s 748 mmHg 87%
02:00 +22°C° 0 mm 1 m/s 748 mmHg 88%
03:00 +22°C° 0 mm 1 m/s 748 mmHg 88%
04:00 +22°C° 0 mm 1 m/s 748 mmHg 88%
05:00 +22°C° 0 mm 1 m/s 748 mmHg 88%
06:00 +22°C° 0 mm 1 m/s 749 mmHg 88%
07:00 +24°C° 0 mm 1 m/s 749 mmHg 80%
08:00 +26°C° 0 mm 1 m/s 749 mmHg 73%
09:00 +28°C° 0 mm 1 m/s 749 mmHg 66%
10:00 +29°C° 0 mm 1 m/s 749 mmHg 63%
11:00 +29°C° 0 mm 1 m/s 749 mmHg 61%
12:00 +30°C° 0 mm 2 m/s 749 mmHg 58%
13:00 +30°C° 0 mm 2 m/s 749 mmHg 58%
14:00 +30°C° 0 mm 2 m/s 748 mmHg 58%
15:00 +30°C° 0 mm 2 m/s 748 mmHg 58%
16:00 +29°C° 0 mm 1 m/s 748 mmHg 64%
17:00 +29°C° 0 mm 1 m/s 748 mmHg 70%
18:00 +28°C° 0 mm 1 m/s 749 mmHg 76%
19:00 +27°C° 0 mm 1 m/s 749 mmHg 79%
20:00 +25°C° 0 mm 1 m/s 750 mmHg 83%
21:00 +22°C° 0 mm 0 m/s 750 mmHg 87%
22:00 +24°C° 0 mm 1 m/s 750 mmHg 87%
23:00 +24°C° 0 mm 1 m/s 750 mmHg 86%

18 Iulie, Sâmbătă

Timp Temperatura Precipitaţii Vânt Presiune Umiditate
00:00 +24°C° 0 mm 1 m/s 750 mmHg 86%
01:00 +24°C° 0 mm 1 m/s 750 mmHg 87%
02:00 +21°C° 0 mm 0 m/s 749 mmHg 87%
03:00 +21°C° 0 mm 0 m/s 749 mmHg 87%
04:00 +21°C° 0 mm 0 m/s 749 mmHg 87%
05:00 +21°C° 0 mm 0 m/s 749 mmHg 88%
06:00 +21°C° 0 mm 0 m/s 749 mmHg 88%
07:00 +25°C° 0 mm 1 m/s 750 mmHg 83%
08:00 +26°C° 0 mm 1 m/s 750 mmHg 77%
09:00 +28°C° 0 mm 1 m/s 750 mmHg 72%
10:00 +29°C° 0 mm 2 m/s 750 mmHg 68%
11:00 +30°C° 0 mm 2 m/s 750 mmHg 64%
12:00 +31°C° 0 mm 2 m/s 750 mmHg 61%
13:00 +31°C° 0 mm 2 m/s 749 mmHg 61%
14:00 +31°C° 0 mm 2 m/s 749 mmHg 61%
15:00 +31°C° 0 mm 2 m/s 749 mmHg 62%
16:00 +30°C° 0 mm 1 m/s 749 mmHg 69%
17:00 +28°C° 0 mm 1 m/s 749 mmHg 75%
18:00 +27°C° 0 mm 1 m/s 749 mmHg 82%
19:00 +26°C° 0 mm 1 m/s 749 mmHg 83%
20:00 +26°C° 0 mm 1 m/s 749 mmHg 84%
21:00 +26°C° 0 mm 1 m/s 750 mmHg 84%
22:00 +26°C° 0 mm 1 m/s 750 mmHg 84%
23:00 +26°C° 0 mm 1 m/s 750 mmHg 83%

19 Iulie, Duminică

Timp Temperatura Precipitaţii Vânt Presiune Umiditate
00:00 +26°C° 0 mm 1 m/s 750 mmHg 82%
01:00 +26°C° 0 mm 1 m/s 750 mmHg 83%
02:00 +25°C° 0 mm 1 m/s 750 mmHg 84%
03:00 +25°C° 0 mm 1 m/s 750 mmHg 85%
04:00 +23°C° 0 mm 0 m/s 750 mmHg 84%
05:00 +23°C° 0 mm 0 m/s 750 mmHg 84%
06:00 +23°C° 0 mm 0 m/s 750 mmHg 83%
07:00 +24°C° 0 mm 0 m/s 750 mmHg 83%
08:00 +24°C° 0 mm 0 m/s 751 mmHg 82%
09:00 +25°C° 0 mm 0 m/s 751 mmHg 82%
10:00 +29°C° 0 mm 1 m/s 751 mmHg 75%
11:00 +30°C° 0 mm 1 m/s 751 mmHg 69%
12:00 +32°C° 0 mm 2 m/s 751 mmHg 62%
13:00 +32°C° 0.3 mm 2 m/s 750 mmHg 67%
14:00 +31°C° 0.3 mm 2 m/s 750 mmHg 71%
15:00 +31°C° 0.3 mm 2 m/s 750 mmHg 76%
16:00 +30°C° 0.4 mm 2 m/s 750 mmHg 79%
17:00 +30°C° 0.4 mm 1 m/s 750 mmHg 82%
18:00 +29°C° 0.4 mm 1 m/s 750 mmHg 85%
19:00 +28°C° 0.5 mm 1 m/s 751 mmHg 87%
20:00 +28°C° 0.5 mm 1 m/s 751 mmHg 90%
21:00 +27°C° 0.5 mm 1 m/s 752 mmHg 92%
22:00 +27°C° 0 mm 1 m/s 752 mmHg 92%
23:00 +27°C° 0 mm 1 m/s 752 mmHg 92%
Arată mai mult